Regional Weather Roundup
Issued by NWS Cleveland, OH

Home | Current Version | Previous Version | Text Only | Print | Product List | Glossary Off
Versions: 1 2 3 4 5 6 7 8 9 10 11 12 13 14 15 16 17 18 19 20 21 22 23 24 25 26 27 28 29 30 31 32 33 34 35 36 37 38 39 40 41 42 43 44 45 46 47 48 49 50

000
ASUS41 KCLE 231110
RWRCLE
OHIO REGIONAL WEATHER ROUNDUP
NATIONAL WEATHER SERVICE CLEVELAND, OH
600 AM EST SUN NOV 23 2014

NOTE: "FAIR" INDICATES FEW OR NO CLOUDS BELOW 12,000 FEET WITH NO
SIGNIFICANT WEATHER AND/OR OBSTRUCTIONS TO VISIBILITY.

OHZ001>008-015>018-024>027-034-035-043-044-231200-
   NORTHWEST OHIO

CITY           SKY/WX    TMP DP  RH WIND       PRES   REMARKS
DEFIANCE       LGT RAIN  47  44  90 S8        29.95S
FINDLAY        CLOUDY    45  41  86 SE8       29.97F
TOLEDO EXPRESS LGT RAIN  45  43  93 S8        29.95F
TOLEDO EXEC    LGT RAIN  45  42  89 S8        29.97F
LIMA           CLOUDY    47  40  76 S9        29.96F
$$

OHZ009>014-019>023-028>033-038-089-231200-
   NORTHEAST OHIO

CITY           SKY/WX    TMP DP  RH WIND       PRES   REMARKS
CLE-HOPKINS    LGT RAIN  45  39  79 S10       30.06R
CLE-LAKEFRONT  LGT RAIN  48  40  73 S13       30.03R
CUY CO. ARPT   NOT AVBL
LORAIN-ELYRIA  LGT RAIN  44  41  89 S9        30.03R
ASHTABULA      CLOUDY    45  33  63 S9        30.04R
AKRON-CANTON   LGT RAIN  44  36  73 S10       30.06R
WOOSTER        LGT RAIN N/A N/A N/A S7        30.05S
MANSFIELD      CLOUDY    45  42  89 S10       30.03S
YOUNGSTOWN     LGT RAIN  45  37  73 S5        30.06R
$$

OHZ042-051>053-060>062-070>072-077>081-231200-
  SOUTHWEST OHIO

CITY           SKY/WX    TMP DP  RH WIND       PRES   REMARKS
CINC-COVINGTON CLOUDY    50  38  63 S10       29.99F
CINC-LUNKEN    CLOUDY    44  37  76 CALM      30.02F
HAMILTON       MOCLDY    50  37  61 VRB3      30.00F
DAYTON         CLOUDY    51  38  60 S13       29.98F
WRIGHT-PAT AFB CLOUDY    50  38  64 SE9       29.99F
DAYTON GENERAL CLOUDY    50  39  66 S9        29.99F
WILMINGTON     CLOUDY    48  37  65 S9        30.01F
$$

OHZ036-037-039>041-045>050-054>059-063>069-073>076-082>088-231200-
  CENTRAL AND SOUTHEAST OHIO

CITY           SKY/WX    TMP DP  RH WIND       PRES   REMARKS
COLUMBUS       CLOUDY    47  35  63 SE5       30.03F
OSU AIRPORT    CLOUDY    48  35  60 S12       30.02F
BOLTON FIELD   CLOUDY    45  37  72 SE6       30.04S
RICKENBACK AFB CLOUDY    45  35  68 S7        30.03F
NEWARK         CLOUDY    40  34  79 CALM      30.05R
MARION         LGT RAIN  44  40  85 SE9       30.01F
LANCASTER      CLOUDY    48  32  53 SE7       30.05S
ZANESVILLE     CLOUDY    45  28  51 SE6       30.07S
NEW PHILLY     CLOUDY    45  35  68 CALM      30.08R
$$


USA.gov is the U.S. government's official web portal to all federal, state and local government web resources and services.